When you browse on this site, cookies collect data to enhance your experience and personalize the content and advertising you see.
Visit our Privacy Policy to learn more. By continuing to use the site, you agree to this use of cookies and data.
  • In Hungary
  • List of Countries
  • For 7 days
  • Water Temperature
  • Satellite Maps
  • Weather Map
  • News
  • Weather Widgets
  • user-avatar
    Login

    Hourly Weather Samos

    Today, 17 January, Thursday

    Time Temperature Precipitation Wind Pressure Humidity
    00:00 +2°C° 0 mm 3 mps 723 mmHg 66%
    01:00 +2°C° 0 mm 3 mps 723 mmHg 68%
    02:00 +2°C° 0 mm 3 mps 723 mmHg 69%
    03:00 +2°C° 0 mm 3 mps 723 mmHg 70%
    04:00 +2°C° 0 mm 3 mps 723 mmHg 70%
    05:00 +2°C° 0 mm 3 mps 723 mmHg 71%
    06:00 +2°C° 0 mm 3 mps 723 mmHg 71%
    07:00 +2°C° 0 mm 3 mps 723 mmHg 71%
    08:00 +2°C° 0 mm 3 mps 723 mmHg 71%
    09:00 +5°C° 0 mm 2 mps 724 mmHg 67%
    10:00 +6°C° 0 mm 2 mps 724 mmHg 63%
    11:00 +7°C° 0 mm 2 mps 724 mmHg 59%
    12:00 +7°C° 0 mm 2 mps 724 mmHg 57%
    13:00 +8°C° 0 mm 2 mps 724 mmHg 55%
    14:00 +10°C° 0 mm 1 mps 724 mmHg 53%
    15:00 +9°C° 0 mm 1 mps 724 mmHg 55%
    16:00 +9°C° 0 mm 1 mps 723 mmHg 58%
    17:00 +7°C° 0 mm 0 mps 723 mmHg 60%
    18:00 +8°C° 0 mm 1 mps 723 mmHg 60%
    19:00 +8°C° 0 mm 1 mps 723 mmHg 61%
    20:00 +8°C° 0 mm 1 mps 723 mmHg 61%
    21:00 +7°C° 0 mm 2 mps 723 mmHg 63%
    22:00 +6°C° 0 mm 2 mps 723 mmHg 64%
    23:00 +6°C° 0 mm 2 mps 723 mmHg 66%

    Tomorrow, 18 January, Friday

    Time Temperature Precipitation Wind Pressure Humidity
    00:00 +5°C° 0 mm 3 mps 723 mmHg 68%
    01:00 +5°C° 0 mm 3 mps 723 mmHg 69%
    02:00 +5°C° 0 mm 4 mps 723 mmHg 71%
    03:00 +5°C° 0 mm 4 mps 723 mmHg 72%
    04:00 +5°C° 0 mm 4 mps 722 mmHg 74%
    05:00 +5°C° 0 mm 4 mps 722 mmHg 75%
    06:00 +6°C° 0 mm 4 mps 722 mmHg 76%
    07:00 +6°C° 0 mm 4 mps 723 mmHg 78%
    08:00 +7°C° 0 mm 4 mps 723 mmHg 79%
    09:00 +7°C° 0.1 mm 4 mps 723 mmHg 80%
    10:00 +8°C° 0.1 mm 4 mps 723 mmHg 80%
    11:00 +9°C° 0.1 mm 5 mps 724 mmHg 80%
    12:00 +9°C° 0.1 mm 5 mps 723 mmHg 78%
    13:00 +9°C° 0.1 mm 5 mps 723 mmHg 75%
    14:00 +10°C° 0.1 mm 6 mps 723 mmHg 73%
    15:00 +9°C° 0.1 mm 5 mps 723 mmHg 74%
    16:00 +9°C° 0.1 mm 5 mps 723 mmHg 74%
    17:00 +9°C° 0.1 mm 5 mps 723 mmHg 74%
    18:00 +10°C° 0 mm 4 mps 723 mmHg 75%
    19:00 +8°C° 0 mm 4 mps 723 mmHg 75%
    20:00 +8°C° 0 mm 4 mps 723 mmHg 76%
    21:00 +8°C° 0.1 mm 4 mps 724 mmHg 77%
    22:00 +8°C° 0.1 mm 4 mps 724 mmHg 78%
    23:00 +8°C° 0.1 mm 4 mps 724 mmHg 79%

    Day after tomorrow, 19 January, Saturday

    Time Temperature Precipitation Wind Pressure Humidity
    00:00 +8°C° 0.2 mm 4 mps 724 mmHg 81%
    01:00 +8°C° 0.2 mm 4 mps 724 mmHg 82%
    02:00 +8°C° 0.2 mm 4 mps 724 mmHg 84%
    03:00 +8°C° 0.2 mm 4 mps 723 mmHg 84%
    04:00 +8°C° 0.2 mm 5 mps 723 mmHg 84%
    05:00 +8°C° 0.2 mm 5 mps 723 mmHg 84%
    06:00 +8°C° 0.1 mm 5 mps 723 mmHg 84%
    07:00 +8°C° 0.1 mm 5 mps 723 mmHg 84%
    08:00 +8°C° 0.1 mm 5 mps 724 mmHg 84%
    09:00 +8°C° 0.1 mm 5 mps 724 mmHg 81%
    10:00 +9°C° 0.1 mm 5 mps 724 mmHg 78%
    11:00 +9°C° 0.1 mm 5 mps 724 mmHg 76%
    12:00 +10°C° 0.1 mm 5 mps 724 mmHg 75%
    13:00 +10°C° 0.1 mm 5 mps 723 mmHg 74%
    14:00 +10°C° 0.1 mm 5 mps 723 mmHg 73%
    15:00 +10°C° 0.1 mm 5 mps 723 mmHg 75%
    16:00 +10°C° 0.1 mm 4 mps 723 mmHg 77%
    17:00 +10°C° 0.1 mm 4 mps 723 mmHg 79%
    18:00 +10°C° 0.1 mm 4 mps 723 mmHg 79%
    19:00 +10°C° 0.1 mm 4 mps 723 mmHg 80%
    20:00 +9°C° 0.1 mm 5 mps 723 mmHg 81%
    21:00 +8°C° 0.1 mm 5 mps 723 mmHg 82%
    22:00 +8°C° 0.1 mm 5 mps 723 mmHg 83%
    23:00 +8°C° 0.1 mm 5 mps 723 mmHg 83%

    20 January, Sunday

    Time Temperature Precipitation Wind Pressure Humidity
    00:00 +8°C° 0.3 mm 5 mps 723 mmHg 83%
    01:00 +8°C° 0.3 mm 5 mps 723 mmHg 84%
    02:00 +8°C° 0.3 mm 5 mps 723 mmHg 84%
    03:00 +8°C° 0.2 mm 5 mps 723 mmHg 84%
    04:00 +8°C° 0.2 mm 5 mps 722 mmHg 84%
    05:00 +8°C° 0.2 mm 5 mps 722 mmHg 85%
    06:00 +8°C° 0.1 mm 5 mps 722 mmHg 85%
    07:00 +8°C° 0.1 mm 5 mps 722 mmHg 86%
    08:00 +8°C° 0.1 mm 5 mps 722 mmHg 86%
    09:00 +8°C° 0.1 mm 6 mps 722 mmHg 85%
    10:00 +9°C° 0.1 mm 6 mps 723 mmHg 84%
    11:00 +9°C° 0.1 mm 6 mps 723 mmHg 83%
    12:00 +9°C° 0.1 mm 6 mps 722 mmHg 83%
    13:00 +9°C° 0.1 mm 6 mps 722 mmHg 82%
    14:00 +10°C° 0.1 mm 6 mps 721 mmHg 82%
    15:00 +9°C° 0 mm 6 mps 721 mmHg 83%
    16:00 +9°C° 0 mm 6 mps 721 mmHg 84%
    17:00 +9°C° 0 mm 6 mps 721 mmHg 85%
    18:00 +9°C° 0 mm 6 mps 721 mmHg 86%
    19:00 +9°C° 0 mm 6 mps 721 mmHg 87%
    20:00 +8°C° 0 mm 6 mps 722 mmHg 88%
    21:00 +8°C° 0 mm 6 mps 722 mmHg 88%
    22:00 +8°C° 0 mm 6 mps 722 mmHg 88%
    23:00 +8°C° 0 mm 6 mps 722 mmHg 88%

    21 January, Monday

    Time Temperature Precipitation Wind Pressure Humidity
    00:00 +8°C° 0.1 mm 6 mps 722 mmHg 88%
    01:00 +8°C° 0.1 mm 5 mps 721 mmHg 88%
    02:00 +8°C° 0.1 mm 5 mps 721 mmHg 88%
    03:00 +8°C° 0.2 mm 5 mps 721 mmHg 88%
    04:00 +8°C° 0.2 mm 5 mps 721 mmHg 89%
    05:00 +8°C° 0.2 mm 5 mps 721 mmHg 89%
    06:00 +8°C° 0.1 mm 5 mps 721 mmHg 89%
    07:00 +8°C° 0.1 mm 5 mps 721 mmHg 89%
    08:00 +7°C° 0.1 mm 4 mps 722 mmHg 89%
    09:00 +8°C° 0.1 mm 4 mps 722 mmHg 86%
    10:00 +10°C° 0.1 mm 4 mps 722 mmHg 82%
    11:00 +10°C° 0.1 mm 4 mps 722 mmHg 79%
    12:00 +11°C° 0.1 mm 4 mps 722 mmHg 78%
    13:00 +11°C° 0.1 mm 4 mps 722 mmHg 77%
    14:00 +11°C° 0.1 mm 4 mps 721 mmHg 76%
    15:00 +11°C° 0.1 mm 4 mps 721 mmHg 78%
    16:00 +11°C° 0.1 mm 4 mps 721 mmHg 81%
    17:00 +10°C° 0.1 mm 4 mps 721 mmHg 84%
    18:00 +10°C° 0.2 mm 4 mps 722 mmHg 85%
    19:00 +10°C° 0.2 mm 4 mps 722 mmHg 86%
    20:00 +8°C° 0.2 mm 4 mps 722 mmHg 88%
    21:00 +8°C° 0.1 mm 4 mps 722 mmHg 88%
    22:00 +8°C° 0.1 mm 4 mps 722 mmHg 89%
    23:00 +9°C° 0.1 mm 3 mps 722 mmHg 89%

    22 January, Tuesday

    Time Temperature Precipitation Wind Pressure Humidity
    00:00 +9°C° 0.1 mm 3 mps 722 mmHg 89%
    01:00 +9°C° 0.1 mm 3 mps 722 mmHg 89%
    02:00 +9°C° 0.1 mm 3 mps 722 mmHg 89%
    03:00 +8°C° 0 mm 4 mps 722 mmHg 88%
    04:00 +7°C° 0 mm 4 mps 721 mmHg 88%
    05:00 +7°C° 0 mm 4 mps 721 mmHg 88%
    06:00 +7°C° 0 mm 4 mps 721 mmHg 88%
    07:00 +7°C° 0 mm 4 mps 722 mmHg 87%
    08:00 +7°C° 0 mm 4 mps 722 mmHg 87%
    09:00 +8°C° 0.2 mm 4 mps 722 mmHg 85%
    10:00 +9°C° 0.2 mm 5 mps 722 mmHg 82%
    11:00 +9°C° 0.2 mm 5 mps 722 mmHg 80%
    12:00 +10°C° 0.1 mm 5 mps 721 mmHg 79%
    13:00 +10°C° 0.1 mm 5 mps 721 mmHg 78%
    14:00 +10°C° 0.1 mm 6 mps 720 mmHg 77%
    15:00 +10°C° 0.1 mm 6 mps 720 mmHg 78%
    16:00 +9°C° 0.1 mm 6 mps 720 mmHg 80%
    17:00 +9°C° 0.1 mm 6 mps 720 mmHg 82%
    18:00 +9°C° 0.1 mm 7 mps 720 mmHg 82%
    19:00 +9°C° 0.1 mm 7 mps 719 mmHg 82%
    20:00 +9°C° 0.1 mm 7 mps 719 mmHg 83%
    21:00 +9°C° 0.2 mm 8 mps 719 mmHg 83%
    22:00 +9°C° 0.2 mm 8 mps 719 mmHg 84%
    23:00 +9°C° 0.2 mm 8 mps 719 mmHg 85%
    Show more